Regional Weather Roundup
Issued by NWS

Home | Current Version | Previous Version | Text Only | Print | Product List | Glossary On
Versions: 1 2 3 4 5 6 7 8 9 10 11 12 13 14 15 16 17 18 19 20 21 22 23 24 25 26 27 28 29 30 31 32 33 34 35 36 37 38 39 40 41 42 43 44 45 46 47 48 49 50
000
ASUS43 KDTX 242210
RWRMI
MICHIGAN HOURLY REGIONAL WEATHER ROUNDUP
NATIONAL WEATHER SERVICE DETROIT/PONTIAC MI
600 PM EDT FRI OCT 24 2014

NOTE: "FAIR" INDICATES FEW OR NO CLOUDS BELOW 12,000 FEET WITH NO
SIGNIFICANT WEATHER AND/OR OBSTRUCTION TO VISIBILITY.

MIZ047>049-052>055-059>063-066>070-074>076-081>083-242300-
SOUTHEAST LOWER MICHIGAN

CITY           SKY/WX    TMP DP  RH WIND       PRES   REMARKS
ADRIAN         PTCLDY    56  46  69 SW3       30.00S
ALMA           CLOUDY    59  49  70 SW7       29.96S
ANN ARBOR      CLOUDY    57  44  62 SW8       29.98F
BAD AXE        CLOUDY    57  48  73 W3        29.96R
DETROIT CITY   CLOUDY    61  43  51 W8        29.97S
DETROIT        CLOUDY    59  44  57 SW12      29.99S
FLINT          MOCLDY    59  48  67 SW6       29.97F
GROSSE ILE     CLOUDY    59  46  63 SW7       29.97S
HILLSDALE      MOCLDY    59  48  67 CALM      29.99S
HOWELL         CLOUDY    58  47  68 SW3       29.97F

CITY           SKY/WX    TMP DP  RH WIND       PRES   REMARKS
JACKSON        CLOUDY    58  48  69 SW7       29.98S
LAMBERTVILLE   CLOUDY    59  45  58 W3        30.00S
LANSING        CLOUDY    59  47  64 W7        29.98S
LAPEER         NOT AVBL
MASON          CLOUDY    59  46  62 CALM      29.97S
MONROE         CLOUDY    57  46  67 SW7       29.98S
MT. CLEMENS    MOCLDY    60  44  56 SW8       29.94S
PONTIAC        MOCLDY    58  45  62 W7        29.97S
PORT HOPE        N/A     56  47  71 CALM      29.94S
PORT HURON     CLEAR     57  45  62 SW5       29.97R
TRI CITIES     MOCLDY    60  49  66 SW5       29.96F
YPSILANTI      CLOUDY    62  44  51 SW9       29.99F
$$
MIZ043>046-050>051-056>058-064>065-071>073-077>080-242300-
SOUTHWEST LOWER MICHIGAN

CITY           SKY/WX    TMP DP  RH WIND       PRES   REMARKS
BATTLE CREEK   MOCLDY    60  47  61 W7        29.98S
BENTON HARBOR  CLEAR     57  49  74 W5        29.98S
BIG RAPIDS     CLOUDY    54  53  99 W5        29.96R
COLDWATER      MOCLDY    60  51  71 W6        29.98S
HOLLAND        PTCLDY    59  49  69 SW8       29.98F
GRAND RAPIDS   PTCLDY    59  50  72 W7        29.97F
KALAMAZOO      PTCLDY    61  48  62 W6        29.98S
MARSHALL       MOCLDY    58  48  69 SW5       29.97S
MUSKEGON       CLOUDY    54  48  80 SW9       29.98S
$$
MIZ016>042-242300-
NORTHERN LOWER MICHIGAN

CITY           SKY/WX    TMP DP  RH WIND       PRES   REMARKS
ALPENA         CLOUDY    55  47  74 SW5       29.93S
BEAVER ISLAND  CLOUDY    51  49  90 SW9       29.92F
BELLAIRE       CLOUDY    54  49  82 CALM      29.94R
CADILLAC       CLOUDY    52  49  90 SW9       29.94S
CHARLEVOIX     CLOUDY    54  49  86 SW6       29.96R
FRANKFORT      CLOUDY    51  47  84 SW6       29.94F
GAYLORD        CLOUDY    51  47  86 SW8       29.93S
GRAYLING       CLOUDY    54  50  85 CALM      29.95S
HARBOR SPRINGS CLOUDY    53  49  86 W5        29.93S
HOUGHTON LAKE  CLOUDY    52  48  86 W5        29.95S
MANISTEE       CLOUDY    52  45  76 S7        29.96S
OSCODA         CLOUDY    54  48  78 SW3       29.93F
PELLSTON       CLOUDY    53  47  79 SW3       29.93S
TRAVERSE CITY  CLOUDY    54  47  77 SW5       29.93S
$$
MIZ007>008-015-242300-
EASTERN UPPER MICHIGAN

CITY           SKY/WX    TMP DP  RH WIND       PRES   REMARKS
KINROSS        CLOUDY    52  48  87 SW7       29.90S
MACKINAC ISLAN CLOUDY    51  49  93 SW9       29.92R
NEWBERRY       CLOUDY    48  46  93 SW9G20    29.89S
S. S. MARIE    CLOUDY    52  46  80 SW9       29.89S
$$
MIZ004>006-011>014-085-242300-
CENTRAL UPPER MICHIGAN

CITY           SKY/WX    TMP DP  RH WIND       PRES   REMARKS
MANISTIQUE     CLOUDY    49  47  93 S9        29.89F
ESCANABA       CLOUDY    50  46  87 S8        29.89S
MENOMINEE      CLEAR     54  46  76 S7        29.89F
SAWYER-GWINN   CLEAR     57  46  67 E10       29.85S
$$
MIZ001>003-009>011-084-242300-
WESTERN UPPER MICHIGAN

CITY           SKY/WX    TMP DP  RH WIND       PRES   REMARKS
IRON MOUNTAIN  CLEAR     60  48  64 SE7       29.85S
HOUGHTON       MOCLDY    63  48  58 E5        29.75F
COPPER HARBOR    N/A     55  48  77 W7        29.75F
IRONWOOD       PTCLDY    64  48  55 SW12G18   29.76S
$$

ABBREVIATIONS USED IN REMARKS
   TC - TEMPERATURE IN CELSIUS
  WCI - WIND CHILL INDEX
   HX - HEAT INDEX
  VSB - VISIBILITY




USA.gov is the U.S. government's official web portal to all federal, state and local government web resources and services.